Location: Domachevo
(51.7500°N, 23.6000°E)
Time: 21:50:57
(UTC+03:00)

Envisat - Visible Passes

Search period start: 20 July 2017 00:00
Search period end: 30 July 2017 00:00
Orbit: 764 x 766 km, 98.2° (Epoch: 19 July)

Date Brightness Start Highest point End Pass type
(mag) Time Alt. Az. Time Alt. Az. Time Alt. Az.
22 Jul 5.4 22:30:37 10° SW 22:34:23 20° W 22:38:09 10° NW visible
24 Jul 5.7 22:58:11 10° WSW 23:00:22 13° W 23:02:33 10° WNW visible
25 Jul 5.1 22:19:01 10° SSW 22:23:10 25° W 22:27:20 10° NW visible
27 Jul 5.6 22:46:07 10° WSW 22:49:06 16° W 22:52:07 10° NW visible
28 Jul 4.8 22:07:32 10° SSW 22:11:58 30° W 22:16:26 10° NNW visible
